Domov               UVHVVR             MKGP            O straneh              
ZDRAVSTVENO VARSTVO RASTLIN
  MREŽA AGROMET. POSTAJ
 ► PROGNOSTIČNA OBVESTILA
AGROMETEOROLOŠKI PODATKI -
ARSO
OBVLADOVANJE TVEGANJ ZARADI
NEUGODNIH VREMENSKIH RAZMER
  ► NARAVNE NESREČE
  ► SUŠA/MOČA
  ► NAMAKANJE
  ► ŽLED (gozdarstvo)
KARTOGRAFSKI PRIKAZI
SPLETNE POVEZAVE
PROJEKTI IN PUBLIKACIJE

AGROMETEOROLOŠKA MREŽA: VREMENSKE POSTAJE IN FENOLOŠKA OPAZOVANJA

Pregled podatkov za lokacijo KIS 2, meteorološka postaja 27260

Pregled senzorjev na lokaciji

ID Ime Zadnja
vrednost
Datum
zadnje
spremembe
Tip
senzorja
1396 Relativna vlaga 2 m (% RH) 86,76 % RH 17.8.2017 07:15 Generic 0 - 100 %
1397 Omočenost lista (U) 9,67 U 17.8.2017 07:15 A730WET
1398 Padavine 0.2 mm (mm) 0 mm 17.8.2017 07:15 Generic
3177 Temperatura 2 m ( °C) 17,87 °C 17.8.2017 07:15 Generic -40 - +60 °C

Pregled podatkov zadnjih 24 ur

Zap.
št.
Datum in čas KIS 2
Omočenost
lista
Padavine
0.2
mm
Relativna
vlaga
2
m
Temperatura
2
m
0 17.8.2017 06:30 9,67 0 86,76 17,87
1 17.8.2017 06:00 9 0 87,49 17,76
2 17.8.2017 05:30 8,97 0 87,69 17,81
3 17.8.2017 05:00 9,73 0 87,32 17,94
4 17.8.2017 04:30 8,83 0 85,98 18,18
5 17.8.2017 04:00 9 0 85,42 18,37
6 17.8.2017 03:30 9 0 85,69 18,63
7 17.8.2017 03:00 8,4 0 86,72 18,59
8 17.8.2017 02:30 7,97 0 86,15 18,66
9 17.8.2017 02:00 7,13 0 86,41 18,63
10 17.8.2017 01:30 6,97 0 86,26 18,75
11 17.8.2017 01:00 6,53 0 86,23 19
12 17.8.2017 00:30 6,67 0 86,08 19,21
13 17.8.2017 00:00 7,43 0 85,36 19,39
14 16.8.2017 23:30 7,8 0 84,59 19,68
15 16.8.2017 23:00 6,3 0 84,04 19,93
16 16.8.2017 22:30 4,7 0 82,9 20,3
17 16.8.2017 22:00 1,37 0 80,21 20,71
18 16.8.2017 21:30 7,63 0 79,52 20,95
19 16.8.2017 21:00 7,2 0 79,64 21,15
20 16.8.2017 20:30 5,7 0 80,13 21,22
21 16.8.2017 20:00 10 0,2 77,44 21,53
22 16.8.2017 19:30 7,67 0 65,36 23,07
23 16.8.2017 19:00 0 0 57,52 24,69
24 16.8.2017 18:30 0 0 52,84 26,17
25 16.8.2017 18:00 0 0 50,49 26,82
26 16.8.2017 17:30 0 0 47,17 27,68
27 16.8.2017 17:00 0 0 43,14 28,86
28 16.8.2017 16:30 0 0 40,71 29,28
29 16.8.2017 16:00 0 0 38,29 29,77
30 16.8.2017 15:30 0 0 34,66 30,66
31 16.8.2017 15:00 0 0 32,37 31,94
32 16.8.2017 14:30 0 0 33,91 31,34
33 16.8.2017 14:00 0 0 35,8 31,2
34 16.8.2017 13:30 0 0 36,53 31,25
35 16.8.2017 13:00 0 0 41,16 30,12
36 16.8.2017 12:30 0 0 42,22 29,56
37 16.8.2017 12:00 0 0 43,74 29,11
38 16.8.2017 11:30 0 0 44,67 28,08
39 16.8.2017 11:00 0 0 46,43 27,31
40 16.8.2017 10:30 0 0 48,11 26,74
41 16.8.2017 10:00 0 0 51,78 25,75
42 16.8.2017 09:30 0 0 56,08 24,48
43 16.8.2017 09:00 0 0 58,5 23,84
44 16.8.2017 08:30 0 0 61,84 22,77
45 16.8.2017 08:00 0 0 67,06 21,29
© 2011 Ministrstvo za kmetijstvo, gozdarstvo in prehrano. Vse pravice pridržane.